Current Weather Conditions: station LICL

sailwx.info

See reports from other nearby stations

no recent reports received from weather station ID LICL

Tides Pressure Air temp Water temp Dewpoint Dewpoint depression Visibility Wind speed Wind direction Waves Ship positions
date/time (UTC)wind fromknots sea level pressurealtimeterstation pressurevisibilityair tempwater tempwave heightnotes
2015-Jul-28 17:55 270 14 28.0
2015-Jul-28 16:55 260 13 29.0
2015-Jul-28 15:55 260 13 29.0
2015-Jul-28 14:55 270 15 30.0
2015-Jul-28 13:55 270 14 30.0
2015-Jul-28 12:55 270 12 gusting 22 30.0
2015-Jul-28 11:55 270 12 31.0
2015-Jul-28 10:55 230 8 29.0
2015-Jul-28 09:55 240 7 29.0
2015-Jul-28 08:55 240 5 29.0
2015-Jul-28 07:55 220 4 29.0
2015-Jul-28 06:55 240 2 29.0
2015-Jul-28 05:55 070 4 27.0
2015-Jul-28 04:55 040 4 26.0
2015-Jul-27 17:55 270 12 29.0
2015-Jul-27 16:55 270 15 29.0
2015-Jul-27 15:55 260 16 29.0
2015-Jul-27 14:55 260 15 30.0
2015-Jul-27 13:55 260 14 29.0
2015-Jul-27 12:55 260 15 gusting 25 30.0
2015-Jul-27 11:55 260 16 29.0
2015-Jul-27 10:55 260 13 30.0
2015-Jul-27 09:55 270 13 30.0
2015-Jul-27 08:55 260 10 30.0
2015-Jul-27 07:55 240 6 29.0
2015-Jul-27 06:55 250 3 28.0
2015-Jul-27 05:55 280 2 27.0
2015-Jul-27 04:55 290 2 27.0